Sign In / Sign Up
 
 
Ocean Inside Regatta. Leg 3. 17/12 - 23/12



Race Date (UTC) # I place II place III place Track
Race597 2018-12-17 22:15:25 5 peperoneverde scorch Chr98
Race596 2018-12-17 22:14:45 8 StoneAge Melges24 Michael rs
Race595 2018-12-17 22:13:03 8 La GattaGnuda ciccioprimo Y.C. Tempio Pausania
Race594 2018-12-17 22:11:27 8 First Valentina patán
Race593 2018-12-17 22:09:45 8 PamperoMDQ Sud_Sicily_ lord
Race592 2018-12-17 22:09:09 8 AleRugbyLionsLi scorch alfaya
Race591 2018-12-17 22:06:51 8 King n4m45t3 StoneAge Melges24
Race590 2018-12-17 22:05:42 8 PISKAREV GALOPIN SB3324RUS Muf First
Race589 2018-12-17 22:03:49 8 Pagani Mattia Kotehok 2 mistral
Race588 2018-12-17 22:02:40 8 AlerugbyLionsLi La GattaGnuda rs
Race587 2018-12-17 22:02:14 8 heidi Extreme GRACIE
Race586 2018-12-17 22:01:33 8 n4m45t3 lord Michael
Race585 2018-12-17 22:00:41 8 Lucona Strbrd STEX
Race584 2018-12-17 21:59:46 8 Muf ted788 3:59.40 Rainbow Race
Race583 2018-12-17 21:58:49 8 Cortobalu3 Kotehok 2 Valentina
Race582 2018-12-17 21:57:12 3 achmed mistral Harry
Race581 2018-12-17 21:56:46 8 HotTuna! A-GRE_9 AleRugbyLionsLi
Race580 2018-12-17 21:55:43 8 heidi Mosi oa Tunya Limbo74
Race579 2018-12-17 21:54:57 8 ITA266 DIO Mangusta03:55
Race578 2018-12-17 21:53:08 8 PISKAREV GALOPIN SB3324RUS AquilaF542 smiling parrot
Race577 2018-12-17 21:51:52 8 ELIOTLUCAS-2 youppi03:50:40 Muf
Race576 2018-12-17 21:51:07 8 Hannon & Himilcon astea achmed
Race575 2018-12-17 21:49:56 8 A-GRE_9 HotTuna! STEX
Race574 2018-12-17 21:48:58 8 jacob x452 Mangusta03:55 between the sheets
Race573 2018-12-17 21:47:08 8 PISKAREV GALOPIN SB3324RUS AquilaF542 DIO
Race572 2018-12-17 21:45:57 8 PANNENKOEK Kotehok 2 doufys
Race571 2018-12-17 21:44:48 8 n4m45t3 ELIOTLUCAS-2 Sambaqui man
Race570 2018-12-17 21:44:14 8 AlerugbyLionsLi A-GRE_9 Jumpin' Babe
Race569 2018-12-17 21:42:55 8 Indefensible Harry Lucona
Race568 2018-12-17 21:41:21 8 saxohero kletz jonatan41
Race567 2018-12-17 21:39:50 8 Valentina Limbo74 pec
Race566 2018-12-17 21:38:52 4 free wind n4m45t3 Sambaqui man
Race565 2018-12-17 21:38:08 8 La GattaGnuda youppi03:50:40 A-GRE_9
Race564 2018-12-17 21:37:52 8 LOU VIRUS Lucona Mangusta03:55
Race563 2018-12-17 21:37:00 2 DIO Cortobalu3
Race562 2018-12-17 21:36:06 8 revenge Azzurra 3 Indefensible
Race561 2018-12-17 21:34:43 8 kletz Strbrd Gonzalo
Race560 2018-12-17 21:33:07 3 Jumpin' Babe kletz Cortobalu3
Race559 2018-12-17 21:32:05 8 A-GRE_9 Nik Arroduco
Race558 2018-12-17 21:31:03 8 Limbo74 AleRugbyLionsLi Lucona
Race557 2018-12-17 21:29:25 8 lord take5 Margo
Race556 2018-12-17 21:28:51 8 RCLaser27 nausica Saphron
Race555 2018-12-17 21:27:22 8 ELIOTLUCAS-2 Extreme PISKAREV GALOPIN SB3324RUS
Race554 2018-12-17 21:26:18 8 Arroduco n4m45t3 bolina74
Race553 2018-12-17 21:25:31 8 A-GRE_9 youppi03:50:40 belle
Race552 2018-12-17 21:24:14 8 Nik Sambaqui man LOU VIRUS
Race551 2018-12-17 21:22:42 8 lord Indefensible ___
Race550 2018-12-17 21:21:24 8 Sonica PISKAREV GALOPIN SB3324RUS vagabundo
Race549 2018-12-17 21:20:28 8 Jumpin' Babe GRACIE ELIOTLUCAS 1
Race548 2018-12-17 21:19:15 8 '64 tropical Satellite
Race547 2018-12-17 21:18:34 8 Nik SEA WORD Lucona
Race546 2018-12-17 21:16:49 8 Telbuoy lord Momotombo
Race545 2018-12-17 21:15:33 8 RCLaser27 PISKAREV GALOPIN SB3324RUS Sonica
Race544 2018-12-17 21:14:53 8 n4m45t3 youppi03:50:40 tdd11
Race543 2018-12-17 21:13:44 8 FRAM bolina74 tropical
Race542 2018-12-17 21:12:39 8 Lucona AlerugbyLionsLi LOU VIRUS
Race541 2018-12-17 21:11:28 8 Nik Limbo74 Obelix
Race540 2018-12-17 21:10:36 8 La GattaGnuda Sardineta JUHNKSHO
Race539 2018-12-17 21:09:39 8 RCLaser27 PISKAREV GALOPIN SB3324RUS Sonica
Race538 2018-12-17 21:08:56 8 n4m45t3 tdd11 belle
Race537 2018-12-17 21:07:50 8 bolina74 FRAM GRACIE
Race536 2018-12-17 21:05:45 8 Lucona '64 AleRugbyLionsLi
Race535 2018-12-17 21:04:52 8 suka La GattaGnuda Cortobalu3
Race534 2018-12-17 21:03:22 8 TeRehutai release yuor self Sonica
Race533 2018-12-17 21:02:44 8 ___ Sardineta Sadalsuck
Race532 2018-12-17 21:01:36 8 FRAM First RCLaser27
Race531 2018-12-17 21:00:32 8 Hopeless Wanderer Extreme Lucona
Race530 2018-12-17 20:58:16 8 BUL 136628 JJ youppi03:50:40
Race529 2018-12-17 20:57:06 8 Chinook ___ First
Race528 2018-12-17 20:56:18 8 FRAM ge614 Sardineta
Race527 2018-12-17 20:54:57 8 SonOfWhoreVistona dew Sadalsuck
Race526 2018-12-17 20:53:45 8 Muf ferfisicaro Norman
Race525 2018-12-17 20:52:20 8 ALICE AleRugbyLionsLi JJ
Race524 2018-12-17 20:50:04 8 ge614 Sardineta uncletony
Race523 2018-12-17 20:48:38 8 Moro di Venezia youppi03:50:40 dew
Race522 2018-12-17 20:46:27 6 marco38 NAGS ferfisicaro
Race521 2018-12-17 20:45:26 8 JLS_1_3:58:50 Muf JJ
Race520 2018-12-17 20:44:39 8 FRAM Sardineta La GattaGnuda
Race519 2018-12-17 20:43:22 5 arkantos Wilburt vagabundo
Race518 2018-12-17 20:41:54 8 Platu Worlds 2020 dew Hichem
Race517 2018-12-17 20:40:44 8 0 Tituli youppi03:50:40 Sonica
Race516 2018-12-17 20:39:35 8 ELIOTLUCAS-2 Norman skip
Race515 2018-12-17 20:38:36 8 FRAM Sardineta suka
Race514 2018-12-17 20:37:10 8 tdd11 King Platu Worlds 2020
Race513 2018-12-17 20:36:19 8 ge614 dew Wilburt
Race512 2018-12-17 20:35:26 8 Extreme youppi03:50:40 Dannato F18
Race511 2018-12-17 20:34:06 8 Ar PempO NAGS Muf
Race510 2018-12-17 20:33:09 8 FRAM No Frigin’ in the Rigin’ JLS_1_3:58:50
Race509 2018-12-17 20:32:25 8 Norman Alberto First
Race508 2018-12-17 20:31:05 8 n4m45t3 SUR Hichem
Race507 2018-12-17 20:29:55 8 ge614 bolina74 dew
Race506 2018-12-17 20:28:55 8 scorch marco38 Strina
Race505 2018-12-17 20:27:13 8 FRAM ELIOTLUCAS-2 Lev
Race504 2018-12-17 20:25:58 8 SonOfWhoreVistona Sardineta First
Race503 2018-12-17 20:25:03 8 noisy Harry GRACIE
Race502 2018-12-17 20:23:59 8 revenge dew Kona two
Race501 2018-12-17 20:21:57 8 TuPadre Ar PempO DA_BOCA!!
Race500 2018-12-17 20:21:13 8 Cortobalu3 FRAM bolina74
Race499 2018-12-17 20:20:04 8 RAYO No Frigin’ in the Rigin’ Vesper
Race498 2018-12-17 20:18:53 8 n4m45t3 SUR ELIOTLUCAS-2